Location: Ay?beleni
(36.6500°N, 30.3000°E)
Time: 00:43:14
(UTC+00:00)

In-Cosmos 22 Rocket - Pass Details

Date: 09 April 2020
Orbit: 790 x 889 km, 81.2° (Epoch: 06 June)

Event Time Altitude Azimuth Distance (km) Brightness Sun altitude
Rises 18:42:41 0° 352° (N) 3,503 8.0 -25.8°
Reaches altitude 10° 18:45:09 10° 354° (N) 2,559 7.2 -26.2°
Maximum altitude 18:51:00 79° 81° (E) 902 4.1 -27.1°
Enters shadow 18:51:08 79° 100° (E) 903 4.1 -27.2°
